{"data":{"norad_id":48642,"epoch":"2026-05-25T04:27:38.695392Z","epoch_age_seconds":65828,"freshness":"FRESH","line1":"1 48642U 21044E   26145.18586453 -.00000104  00000+0  84099-5 0  9993","line2":"2 48642  53.1591 118.1490 0001334  85.2193 274.8961 15.31696150275540","mean_motion":15.3169615,"eccentricity":0.0001334,"inclination_deg":53.1591,"raan_deg":118.149,"arg_perigee_deg":85.2193,"mean_anomaly_deg":274.8961,"bstar":8.4099e-6,"rev_number":27554,"period_min":94.013424268253,"perigee_km":469.8378301772,"apogee_km":471.6651136215,"semimajor_km":6848.8884718993,"source":"CELESTRAK","updated_at":"2026-05-25T13:38:16.753626Z"}}